Regional Weather Roundup
Issued by NWS

Home | Current Version | Previous Version | Text Only | Print | Product List | Glossary On
Versions: 1 2 3 4 5 6 7 8 9 10 11 12 13 14 15 16 17 18 19 20 21 22 23 24 25 26 27 28 29 30 31 32 33 34 35 36 37 38 39 40 41 42 43 44 45 46 47 48 49 50
000
ASCA44 KEWX 030720
RWRMX

LATIN AMERICA AND CARIBBEAN REGIONAL WEATHER ROUNDUP
NATIONAL WEATHER SERVICE AUSTIN/SAN ANTONIO TX
200 AM CDT TUE MAY 03 2016

NOTE: "FAIR" INDICATED FEW OR NO CLOUDS BELOW 12,000 FEET WITH NO
SIGNIFICANT WEATHER AND/OR OBSTRUCTIONS TO VISIBILITY.

BAJA CALIFORNIA

CITY           SKY/WX    TMP DP  RH WIND       PRES   REMARKS
MEXICALI       CLEAR     75  39  27 NW3       29.89S
S.J. DEL CABO    N/A    N/A N/A N/A MISG        N/A
TIJUANA        MOCLDY    59  54  82 CALM      30.02F

NORTHWESTERN MEXICO

CITY           SKY/WX    TMP DP  RH WIND       PRES   REMARKS
HERMOSILLO     CLEAR     68  45  42 CALM      29.91F

NORTHEASTERN MEXICO

CITY           SKY/WX    TMP DP  RH WIND       PRES   REMARKS
MONCLOVA         N/A    N/A N/A N/A MISG        N/A
MONTERREY      CLOUDY    64  52  63 NW5       30.08F
REYNOSA          N/A    N/A N/A N/A MISG        N/A
SALTILLO       CLOUDY    50  48  93 N6        30.23  WCI  48
CD. VICTORIA     N/A    N/A N/A N/A MISG        N/A

WESTERN MEXICO

CITY           SKY/WX    TMP DP  RH WIND       PRES   REMARKS
AGUASCALIENTES   N/A    N/A N/A N/A MISG        N/A
COLIMA           N/A    N/A N/A N/A MISG        N/A
GUADALAJARA    CLEAR     66  34  30 CALM      30.11F
MAZATLAN       CLEAR     64  61  88 CALM      29.85F
P. VALLARTA    PTCLDY    72  68  88 CALM      29.85F
URUAPAN          N/A    N/A N/A N/A MISG        N/A
ZACATECAS        N/A    N/A N/A N/A MISG        N/A

CENTRAL MEXICO

CITY           SKY/WX    TMP DP  RH WIND       PRES   REMARKS
CUERNAVACA       N/A    N/A N/A N/A MISG        N/A
MEXICO CITY    PTCLDY    64  52  63 NW9       30.32F
MORELIA        PTCLDY    61  30  31 CALM      30.17S
POZA RICA        N/A    N/A N/A N/A MISG        N/A
S. LUIS POTOSI PTCLDY    63  54  72 E5        30.20F HAZE
TOLUCA         MOCLDY    57  37  47 CALM      30.38F

SOUTHERN MEXICO

CITY           SKY/WX    TMP DP  RH WIND       PRES   REMARKS
ACAPULCO       CLEAR     75  72  88 W3        29.85F
B. DE HUATULCO   N/A    N/A N/A N/A MISG        N/A
P. ESCONDIDO     N/A    N/A N/A N/A MISG        N/A
VERACRUZ         N/A    N/A N/A N/A MISG        N/A

YUCATAN PENINSULA

CITY           SKY/WX    TMP DP  RH WIND       PRES   REMARKS
CAMPECHE         N/A    N/A N/A N/A MISG        N/A
CANCUN         PTCLDY    81  77  89 E10       29.91F
CHETUMAL         N/A    N/A N/A N/A MISG        N/A
CD. DEL CARMEN   N/A    N/A N/A N/A MISG        N/A
COZUMEL        PTCLDY    75  75 100 E6        29.92F
MERIDA         PTCLDY    82  73  74 E12       29.87F
MINATITLAN       N/A    N/A N/A N/A MISG        N/A
TAPACHULA      PTCLDY    81  75  83 N5        29.79F

CENTRAL AMERICA

CITY           SKY/WX    TMP DP  RH WIND       PRES   REMARKS
MANAGUA        MOSUNNY   79  75  89 SE5       29.83S

CARIBBEAN

CITY           SKY/WX    TMP DP  RH WIND       PRES   REMARKS
KINGSTON       PTCLDY    82  73  74 SE16      29.92S
NASSAU         MOCLDY    79  73  83 E9        30.00F
SAN JUAN       MOCLDY    73  73 100 S3        30.01F
ST. CROIX      CLEAR     73  72  94 E7        30.01F
ST. MAARTEN    LGT RAIN  75  73  94 E7        30.03
ST. THOMAS     MOCLDY    79  73  83 SE18      30.01

$$





USA.gov is the U.S. government's official web portal to all federal, state and local government web resources and services.